New York JFK, NY

12:36 PM EDT on September 18, 2019 (GMT -0400)
Kennedy International

Weather History for KJFK - August, 2019

Change the Weather History Date:

Monday, August 19, 2019

  Actual Average Record
Temperature  
Mean Temperature 79 °F 75 °F  
Max Temperature 86 °F 82 °F 90 °F (1966)
Min Temperature 72 °F 68 °F 53 °F (1963)
Degree Days  
Heating Degree Days 0 0  
Month to date heating degree days 0 0  
Since 1 June heating degree days 7 21  
Since 1 July heating degree days 0 0  
Cooling Degree Days 14 10  
Month to date cooling degree days 222 201  
Year to date cooling degree days 877 756  
Since 1 June cooling degree days 840 721  
Growing Degree Days 29 (Base 50)    
Moisture  
Dew Point 75 °F    
Average Humidity 90    
Maximum Humidity 100    
Minimum Humidity 77    
Precipitation  
Precipitation 0.15 in 0.12 in 3.10 in (1960)
Month to date precipitation 1.53 2.37  
Year to date precipitation 35.02 27.65  
Snow  
Snow 0.00 in 0.00 in - ()
Month to date snowfall 0.0 0.0  
Since 1 July snowfall 0.0 0.0  
Snow Depth 0.00 in    
Sea Level Pressure  
Sea Level Pressure 29.98 in    
Wind  
Wind Speed 7 mph ()    
Max Wind Speed 29 mph    
Max Gust Speed 36 mph    
Visibility 9.1 miles    
Events Rain , Thunderstorm    
T = Trace of Precipitation, MM = Missing Value Source: Averaged Metar Reports

Daily Weather History Graph

Daily Weather History Graph

Search for Another Location

Airport or City:

Astronomy

Aug. 19, 2019 Rise Set
Actual Time 6:09 AM EDT 7:47 PM EDT
Civil Twilight 5:40 AM EDT 8:16 PM EDT
Nautical Twilight 5:05 AM EDT 8:51 PM EDT
Astronomical Twilight 4:27 AM EDT 9:28 PM EDT
Moon 10:06 PM EDT (8/19) 9:48 AM EDT (8/19)
Length of Visible Light 14h 36m
Length of Day
13h 38m
Waning Gibbous, 85% of the Moon is Illuminated
Aug 19
Waning Gibbous
Aug 23
Last Quarter
Aug 30
New
Sep 5
First Quarter
Sep 14
Full

Hourly Weather History & Observations

Time (EDT) Temp. Heat Index Dew Point Humidity Pressure Visibility Wind Dir Wind Speed Gust Speed Precip Events Conditions
12:51 AM 73.9 °F - 70.0 °F 87% 29.97 in 10.0 mi ENE 3.5 mph - N/A   Scattered Clouds
1:51 AM 73.0 °F - 69.1 °F 87% 29.96 in 10.0 mi SW 3.5 mph - N/A   Scattered Clouds
2:51 AM 73.9 °F - 73.9 °F 100% 29.96 in 10.0 mi SE 5.8 mph - N/A   Mostly Cloudy
3:51 AM 75.0 °F - 75.0 °F 100% 29.97 in 10.0 mi WSW 9.2 mph - N/A   Mostly Cloudy
4:51 AM 73.9 °F - 73.9 °F 100% 29.99 in 10.0 mi WSW 5.8 mph - N/A   Mostly Cloudy
5:51 AM 73.9 °F - 73.9 °F 100% 29.99 in 10.0 mi SSW 5.8 mph - N/A   Scattered Clouds
6:51 AM 75.0 °F - 75.0 °F 100% 30.01 in 10.0 mi SW 4.6 mph - N/A   Mostly Cloudy
7:51 AM 77.0 °F - 75.0 °F 94% 30.00 in 10.0 mi SSW 6.9 mph - N/A   Scattered Clouds
8:29 AM 77.0 °F - 75.9 °F 96% 30.00 in 8.0 mi SSW 8.1 mph - N/A   Mostly Cloudy
8:51 AM 75.9 °F - 75.9 °F 100% 30.00 in 6.0 mi SSW 8.1 mph - N/A   Mostly Cloudy
9:42 AM 77.0 °F - 75.9 °F 96% 30.00 in 7.0 mi WSW 11.5 mph - N/A   Mostly Cloudy
9:51 AM 77.0 °F - 75.9 °F 96% 30.00 in 7.0 mi SW 11.5 mph - N/A   Mostly Cloudy
10:51 AM 80.1 °F 85.8 °F 77.0 °F 90% 30.00 in 8.0 mi South 8.1 mph - N/A   Scattered Clouds
11:51 AM 82.9 °F 91.8 °F 77.0 °F 82% 30.00 in 10.0 mi South 9.2 mph - N/A   Scattered Clouds
12:51 PM 84.0 °F 93.7 °F 77.0 °F 79% 30.00 in 10.0 mi South 12.7 mph - N/A   Partly Cloudy
1:51 PM 84.0 °F 94.8 °F 78.1 °F 82% 29.99 in 10.0 mi South 8.1 mph - N/A   Partly Cloudy
2:51 PM 86.0 °F 98.3 °F 78.1 °F 77% 29.96 in 10.0 mi SSE 11.5 mph - N/A   Scattered Clouds
3:51 PM 82.0 °F 90.2 °F 77.0 °F 85% 29.95 in 10.0 mi South 15.0 mph - N/A   Scattered Clouds
4:15 PM 80.1 °F 85.4 °F 75.9 °F 87% 29.94 in 10.0 mi South 18.4 mph - N/A Thunderstorm Thunderstorm
4:36 PM 77.0 °F - 75.9 °F 96% 29.93 in 4.0 mi WSW 10.4 mph 24.2 mph 0.10 in Rain , Thunderstorm Heavy Thunderstorms and Rain
4:51 PM 77.0 °F - 75.0 °F 94% 29.94 in 7.0 mi South 19.6 mph 26.5 mph 0.13 in Rain , Thunderstorm Light Thunderstorms and Rain
5:51 PM 77.0 °F - 72.0 °F 84% 29.98 in 7.0 mi North 5.8 mph 20.7 mph 0.00 in Rain , Thunderstorm Light Thunderstorms and Rain
6:24 PM 79.0 °F - 72.0 °F 79% 29.98 in 10.0 mi SE 5.8 mph - 0.02 in Rain Light Rain
6:51 PM 78.1 °F - 72.0 °F 81% 29.99 in 10.0 mi SSE 11.5 mph - 0.02 in   Mostly Cloudy
7:51 PM 77.0 °F - 71.1 °F 82% 29.98 in 10.0 mi SW 8.1 mph - N/A   Mostly Cloudy
8:51 PM 77.0 °F - 72.0 °F 84% 29.99 in 10.0 mi WSW 6.9 mph - N/A   Mostly Cloudy
9:51 PM 78.1 °F - 73.0 °F 84% 30.00 in 10.0 mi West 12.7 mph - N/A   Mostly Cloudy
10:51 PM 77.0 °F - 73.9 °F 90% 30.01 in 10.0 mi WSW 8.1 mph - N/A   Mostly Cloudy